Weather History for KYIP - February, 2013

Change the Weather History Date:

Saturday, February 2, 2013

  Actual Average Record
Temperature  
Mean Temperature 20 °F -  
Max Temperature 24 °F 34 °F 52 °F (1973)
Min Temperature 15 °F 17 °F -9 °F (1971)
Degree Days  
Heating Degree Days 46    
Moisture  
Dew Point 13 °F    
Average Humidity 74    
Maximum Humidity 80    
Minimum Humidity 64    
Precipitation  
Precipitation 0.00 in - - ()
Sea Level Pressure  
Sea Level Pressure 30.03 in    
Wind  
Wind Speed 11 mph (SW)    
Max Wind Speed 16 mph    
Max Gust Speed 22 mph    
Visibility 4 miles    
Events Snow    
Averages and records for this station are not official NWS values.
T = Trace of Precipitation, MM = Missing Value Source: NWS Daily Summary

Daily Weather History Graph

Daily Weather History Graph

Search for Another Location

Airport or City:

Trip Planner

Search our weather history database for the weather conditions in past years. The results will help you decide how hot, cold, wet, or windy it might be!

Date:

Astronomy

Feb. 02, 2013 Rise Set
Actual Time 7:46 AM EST 5:50 PM EST
Civil Twilight 7:16 AM EST 6:19 PM EST
Nautical Twilight 6:43 AM EST 6:53 PM EST
Astronomical Twilight 6:10 AM EST 7:26 PM EST
Moon 12:03 AM EST (2/2) 10:47 AM EST (2/2)
Length of Visible Light 11h 03m
Length of Day
10h 04m
Waning Gibbous, 60% of the Moon is Illuminated
Feb 2
Waning Gibbous
Feb 3
Last Quarter
Feb 10
New
Feb 17
First Quarter
Feb 25
Full

Hourly Weather History & Observations

Time (EST) Temp. Windchill Dew Point Humidity Pressure Visibility Wind Dir Wind Speed Gust Speed Precip Events Conditions
12:53 AM 15.1 °F -0.6 °F 6.1 °F 68% 30.24 in 10.0 mi SSW 16.1 mph - N/A   Overcast
1:53 AM 15.1 °F 1.1 °F 6.1 °F 68% 30.22 in 10.0 mi SW 12.7 mph - N/A   Overcast
2:53 AM 16.0 °F 2.3 °F 6.1 °F 65% 30.20 in 10.0 mi SSW 12.7 mph - N/A   Scattered Clouds
4:53 AM 17.1 °F - 9.0 °F 71% 30.16 in 2.5 mi North - - 0.00 in Snow Light Snow
5:09 AM 17.6 °F 5.0 °F 8.6 °F 68% 30.12 in 4.0 mi SSW 11.5 mph - 0.00 in Snow Light Snow
5:39 AM 17.6 °F 3.7 °F 10.4 °F 73% 30.10 in 2.0 mi SSW 13.8 mph - 0.00 in Snow Light Snow
5:53 AM 17.1 °F 4.3 °F 10.0 °F 74% 30.12 in 2.5 mi SSW 11.5 mph - 0.00 in Snow Light Snow
6:10 AM 17.6 °F 3.7 °F 10.4 °F 73% 30.09 in 4.0 mi SSW 13.8 mph - 0.00 in Snow Light Snow
7:24 AM 17.6 °F 5.7 °F 10.4 °F 73% 30.07 in 2.5 mi SSW 10.4 mph - 0.00 in Snow Light Snow
7:33 AM 17.6 °F 5.7 °F 10.4 °F 73% 30.06 in 1.8 mi SSW 10.4 mph - 0.00 in Snow Light Snow
7:53 AM 18.0 °F 6.9 °F 12.0 °F 78% 30.09 in 1.0 mi SSW 9.2 mph - 0.00 in Snow Light Snow
8:00 AM 17.6 °F 6.4 °F 12.2 °F 79% 30.06 in 0.5 mi South 9.2 mph - 0.00 in Snow Snow
8:27 AM 17.6 °F 6.4 °F 12.2 °F 79% 30.05 in 1.0 mi South 9.2 mph - 0.00 in Snow Light Snow
8:53 AM 19.0 °F 7.5 °F 12.9 °F 77% 30.08 in 1.8 mi SSW 10.4 mph - 0.00 in Snow Light Snow
9:21 AM 19.4 °F 6.6 °F 12.2 °F 74% 30.03 in 2.0 mi SSW 12.7 mph - 0.00 in Snow Light Snow
9:46 AM 19.4 °F 7.2 °F 12.2 °F 74% 30.03 in 3.0 mi SSW 11.5 mph - 0.00 in Snow Light Snow
9:53 AM 19.9 °F - 12.9 °F 74% 30.06 in 2.5 mi North - - 0.00 in Snow Light Snow
10:08 AM 19.4 °F 7.2 °F 12.2 °F 74% 30.02 in 5.0 mi SSW 11.5 mph 19.6 mph 0.00 in Snow Light Snow
10:22 AM 19.4 °F 6.6 °F 12.2 °F 74% 30.01 in 6.0 mi SSW 12.7 mph - 0.00 in Snow Light Snow
10:30 AM 19.4 °F 7.2 °F 14.0 °F 80% 30.01 in 7.0 mi SSW 11.5 mph - 0.00 in   Overcast
10:53 AM 21.0 °F 8.6 °F 12.9 °F 71% 30.03 in 6.0 mi SSW 12.7 mph 21.9 mph 0.00 in   Haze
11:04 AM 21.2 °F 7.3 °F 14.0 °F 74% 30.00 in 6.0 mi SSW 16.1 mph - N/A   Haze
11:53 AM 21.9 °F 11.0 °F 14.0 °F 72% 30.01 in 8.0 mi SW 10.4 mph - N/A   Overcast
12:53 PM 21.9 °F 11.0 °F 15.1 °F 75% 29.99 in 4.0 mi SW 10.4 mph - 0.00 in Snow Light Snow
1:05 PM 21.2 °F 11.7 °F 15.8 °F 80% 29.95 in 2.0 mi SW 8.1 mph - 0.00 in Snow Light Snow
1:09 PM 23.0 °F 13.1 °F 15.8 °F 74% 29.95 in 1.8 mi SW 9.2 mph - 0.00 in Snow Light Snow
1:30 PM 23.0 °F 13.1 °F 15.8 °F 74% 29.95 in 1.5 mi SSW 9.2 mph - 0.00 in Snow Light Snow
1:53 PM 23.0 °F 13.1 °F 16.0 °F 74% 29.97 in 3.0 mi SSW 9.2 mph - 0.00 in Snow Light Snow
2:02 PM 23.0 °F 13.1 °F 15.8 °F 74% 29.94 in 3.0 mi SSW 9.2 mph - 0.00 in Snow Light Snow
2:48 PM 24.8 °F 16.1 °F 17.6 °F 74% 29.93 in 3.0 mi SSW 8.1 mph - 0.00 in Snow Light Snow
2:53 PM 24.1 °F 15.2 °F 17.1 °F 75% 29.96 in 3.0 mi SSW 8.1 mph - 0.00 in Snow Light Snow
3:00 PM 24.8 °F 16.9 °F 17.6 °F 74% 29.93 in 1.8 mi SSW 6.9 mph - 0.00 in Snow Light Snow
3:53 PM 24.1 °F 17.0 °F 18.0 °F 77% 29.96 in 1.5 mi SSW 5.8 mph - 0.00 in Snow Light Snow
4:37 PM 24.8 °F 20.5 °F 19.4 °F 80% 29.94 in 0.8 mi SW 3.5 mph - 0.00 in Snow Light Snow
4:50 PM 24.8 °F 14.0 °F 17.6 °F 74% 29.95 in 0.5 mi North 11.5 mph - 0.00 in Snow Snow
4:53 PM 23.0 °F 11.7 °F 17.1 °F 78% 29.97 in 0.2 mi NNW 11.5 mph - 0.00 in Snow Heavy Snow
5:06 PM 23.0 °F 13.9 °F 17.6 °F 80% 29.95 in 0.5 mi NNW 8.1 mph - 0.00 in Snow Snow
5:23 PM 21.2 °F 10.9 °F 15.8 °F 80% 29.96 in 0.8 mi NNW 9.2 mph - 0.00 in Snow Light Snow
5:31 PM 21.2 °F 9.5 °F 15.8 °F 80% 29.96 in 1.0 mi NNW 11.5 mph - 0.00 in Snow Light Snow
5:51 PM 21.2 °F 10.9 °F 15.8 °F 80% 29.96 in 2.5 mi NNW 9.2 mph - 0.00 in Snow Light Snow
5:53 PM 21.9 °F 11.7 °F 15.1 °F 75% 29.99 in 2.5 mi NNW 9.2 mph - 0.00 in Snow Light Snow
6:01 PM 21.2 °F 11.7 °F 14.0 °F 74% 29.97 in 4.0 mi NNW 8.1 mph - 0.00 in Snow Light Snow
6:53 PM 19.9 °F 11.1 °F 12.9 °F 74% 30.01 in 10.0 mi NNW 6.9 mph - 0.00 in   Overcast
7:53 PM 19.9 °F 8.6 °F 10.9 °F 68% 30.03 in 10.0 mi NNW 10.4 mph - N/A   Overcast
8:48 PM 17.6 °F 5.7 °F 8.6 °F 68% 30.00 in 10.0 mi North 10.4 mph - N/A   Overcast
8:53 PM 17.1 °F 4.3 °F 8.1 °F 68% 30.04 in 10.0 mi North 11.5 mph - N/A   Overcast
9:53 PM 17.1 °F 7.6 °F 7.0 °F 65% 30.04 in 10.0 mi North 6.9 mph - N/A   Overcast
10:53 PM 15.1 °F 6.4 °F 5.0 °F 64% 30.04 in 10.0 mi North 5.8 mph - N/A   Overcast